This demonstration page uses our WeatherBlox Daily Observations layout. Learn more.

39.29038, -76.61219

Hourly Observations for July 31, 2020

Temp ( °F °C ) Dew Point ( °F °C ) Humidity (%) Winds ( mph kmh ) Pressure ( in mb ) Visibility ( mi km ) Precip ( " mm )
12:54 am 00:54 Cloudy with Light Rain 76 24.4 73 22.8 91 91 SSW 3 6 29.84 1010 8 12.87472 0.02 0.508
1:54 am 01:54 Cloudy with Light Rain 75 23.9 71 21.7 88 88 SSW 3 6 29.81 1010 9 14.48406 0.01 0.254
2:54 am 02:54 Cloudy with Light Rain 75 23.9 72 22.2 90 90 Calm 29.79 1009 8 12.87472 0.02 0.508
3:54 am 03:54 Cloudy with Light Rain 75 23.9 71 21.7 88 88 Calm 29.77 1008 8 12.87472 0.001 0.001
4:01 am 04:01 Cloudy with Light Rain 75 23.9 71 21.7 88 88 Calm 29.77 1008 10 16.0934 0.001 0.001
4:47 am 04:47 Cloudy with Light Rain 75 23.9 72 22.2 90 90 W 3 6 29.76 1008 8 12.87472 0.001 0.001
4:54 am 04:54 Cloudy with Light Rain 74 23.3 72 22.2 94 94 W 3 6 29.77 1008 8 12.87472 0.001 0.001
5:52 am 05:52 Cloudy with Rain 72 22 70 21 94 94 NW 7 11 29.77 1008 1.5 2.41401 0.03 0.762
5:54 am 05:54 Cloudy with Rain 72 22.2 69 20.6 91 91 NW 6 9 29.78 1008 1.5 2.41401 0.04 1.016
6:14 am 06:14 Cloudy with Light Rain 72 22.2 70 21.1 94 94 NNW 7 11 29.77 1008 3 4.82802 0.09 2.286
6:54 am 06:54 Cloudy with Light Rain 72 22.2 70 21.1 94 94 NW 3 6 29.78 1009 5 8.0467 0.1 2.54
7:54 am 07:54 Cloudy 73 22.8 70 21.1 90 90 VRB 5 7 29.79 1009 10 16.0934 0.01 0.254
8:16 am 08:16 Cloudy with Rain 73 22.8 70 21.1 90 90 WNW 3 6 29.79 1009 1.75 2.816345 0.04 1.016
8:41 am 08:41 Cloudy with Rain 73 22.8 70 21.1 90 90 Calm 29.8 1009 2.5 4.02335 0.15 3.81
8:54 am 08:54 Cloudy with Light Rain 73 22.8 70 21.1 90 90 Calm 29.8 1009 5 8.0467 0.16 4.064
9:54 am 09:54 Cloudy with Light Rain 74 23.3 70 21.1 88 88 N 3 6 29.8 1009 6 9.65604 0.02 0.508
10:54 am 10:54 Cloudy with Light Rain 75 23.9 71 21.7 88 88 N 3 6 29.8 1009 10 16.0934 0.05 1.27
11:01 am 11:01 Cloudy 75 23.9 71 21.7 88 88 VRB 3 6 29.8 1009 10 16.0934 0.001 0.001
11:54 am 11:54 Cloudy 77 25 71 21.7 82 82 N 3 6 29.8 1009 10 16.0934 0.001 0.001
12:54 pm 12:54 Cloudy with Light Rain 77 25 70 21.1 79 79 Calm 29.8 1009 10 16.0934 0.001 0.001
1:33 pm 13:33 Cloudy 79 26.1 71 21.7 77 77 ENE 3 6 29.8 1009 10 16.0934 0.01 0.254
1:54 pm 13:54 Cloudy with Light Rain 78 25.6 72 22.2 82 82 SE 6 9 29.8 1009 10 16.0934 0.01 0.254
2:30 pm 14:30 Cloudy 77 25 71 21.7 82 82 E 6 9 29.79 1009 8 12.87472 0.001 0.001
2:54 pm 14:54 Cloudy 78 25.6 71 21.7 79 79 VRB 3 6 29.8 1009 7 11.26538 0.001 0.001
3:10 pm 15:10 Cloudy 78 25.6 72 22.2 82 82 NE 3 6 29.79 1009 9 14.48406 0 0
3:54 pm 15:54 Cloudy 79 26.1 71 21.7 77 77 E 3 6 29.8 1009 10 16.0934 0 0
4:54 pm 16:54 Cloudy 79 26.1 71 21.7 77 77 ESE 5 7 29.8 1009 10 16.0934 0 0
5:01 pm 17:01 Cloudy 80 26.7 71 21.7 74 74 ESE 6 9 29.79 1009 10 16.0934 0 0
5:54 pm 17:54 Mostly Cloudy 80 26.7 72 22.2 76 76 SSE 3 6 29.8 1009 10 16.0934 0 0
6:41 pm 18:41 Mostly Cloudy 80 26.7 71 21.7 74 74 ESE 7 11 29.79 1009 10 16.0934 0 0
6:54 pm 18:54 Mostly Cloudy 79 26.1 71 21.7 77 77 ESE 7 11 29.8 1009 10 16.0934 0 0
7:44 pm 19:44 Mostly Cloudy 78 25.6 71 21.7 79 79 E 6 9 29.81 1010 10 16.0934 0 0
7:54 pm 19:54 Mostly Cloudy 78 25.6 71 21.7 79 79 E 6 9 29.82 1010 10 16.0934 0 0
8:54 pm 20:54 Mostly Cloudy 76 24.4 71 21.7 85 85 N 5 7 29.84 1010 7 11.26538 0.001 0.001
9:40 pm 21:40 Cloudy with Light Rain 75 23.9 72 22.2 90 90 Calm 29.86 1011 6 9.65604 0.001 0.001
9:54 pm 21:54 Cloudy with Mist and Fog 75 23.9 72 22.2 90 90 W 3 6 29.86 1011 6 9.65604 0.001 0.001
10:40 pm 22:40 Mostly Cloudy with Mist and Fog 75 23.9 72 22.2 90 90 Calm 29.85 1011 6 9.65604 0 0
10:54 pm 22:54 Mostly Cloudy with Mist and Fog 75 23.9 72 22.2 90 90 Calm 29.86 1011 6 9.65604 0 0
11:54 pm 23:54 Mostly Cloudy 74 23.3 71 21.7 91 91 WNW 3 6 29.87 1011 7 11.26538 0 0

Powered by AerisWeather